Vorticity
4 4 4 3 2 4 5 7 10 10 9 11 12 13 12 10 9 5 5 3 5 8 8 13 21 18 21 16 19 19 16 29 16 25 22 27 14 15 10 5 5 2 7 13 3
3 3 3 1 1 -0 4 8 8 9 9 11 8 8 10 10 10 8 6 4 4 8 9 17 15 17 17 19 19 17 17 17 16 21 16 18 20 21 14 5 2 5 -1 11 12
3 5 6 4 2 1 0 -1 2 8 10 8 11 8 12 8 10 11 9 8 7 7 7 17 16 14 14 13 18 15 12 20 21 21 13 19 14 25 17 6 -4 6 6 12 -17
3 5 6 5 5 3 1 2 1 2 8 5 4 10 7 9 10 11 11 9 7 7 9 11 19 11 17 17 14 16 11 12 15 21 15 24 16 23 16 4 4 1 -0 19 3
4 6 5 7 10 8 6 3 3 2 2 8 6 7 7 9 12 11 10 10 10 6 6 11 24 12 13 8 5 24 15 12 12 22 18 16 21 26 16 5 0 -4 8 -3 7
4 4 3 2 5 7 9 7 5 2 -1 10 7 7 8 8 6 7 10 9 9 10 5 12 10 19 11 5 22 8 23 21 17 20 25 16 22 20 19 5 1 -0 6 6 49
3 4 5 4 5 4 7 7 8 4 -1 7 5 6 6 3 7 12 6 11 8 12 9 6 11 16 15 12 12 24 13 21 20 20 14 18 18 26 21 11 -4 19 7 9 11
5 5 4 4 4 5 6 5 6 4 2 3 6 5 6 5 7 5 6 9 8 12 13 8 13 9 17 12 6 6 8 5 22 9 15 21 15 27 21 4 -1 20 -46 -19 30
3 5 6 5 5 6 4 5 3 4 7 0 6 7 4 5 4 5 3 7 7 9 10 14 7 10 13 17 12 17 15 14 18 19 20 25 10 20 23 11 -6 -6 4 5 -56
3 6 5 5 5 6 3 -1 2 6 6 -1 5 8 5 4 5 4 3 8 7 5 7 10 12 8 9 13 14 17 10 7 9 17 19 27 16 13 9 13 13 11 -12 -16 43
8 1 4 5 5 5 4 8 6 6 3 -3 8 2 5 5 5 4 5 4 7 8 8 7 7 10 13 8 14 11 17 13 19 15 23 24 22 10 25 27 14 11 5 -16 32
9 7 6 4 1 5 5 -2 1 4 3 -3 15 3 5 3 8 4 6 6 6 5 11 7 9 11 5 15 10 18 13 16 18 14 22 31 30 4 20 42 11 17 -13 -31 -33
10 12 13 20 5 3 8 -0 6 5 4 1 9 7 6 3 8 8 5 5 8 7 3 10 12 7 12 7 17 12 16 14 17 13 8 30 17 17 -10 29 23 23 0 18 23
10 11 5 3 13 8 5 7 -3 6 -1 6 -1 1 7 6 3 8 5 6 5 4 7 10 11 12 4 10 7 13 12 15 15 15 10 16 22 12 6 12 44 22 41 -15 -21
9 13 16 7 6 8 3 4 3 3 -1 18 2 -0 -5 12 5 6 8 6 7 8 3 4 7 9 11 6 9 8 19 8 18 12 16 11 15 15 14 6 2 33 6 -18 23
9 1 12 11 27 38 10 4 1 5 10 7 8 4 0 6 10 3 4 12 9 8 6 5 5 9 8 12 4 8 9 13 13 24 15 13 20 13 9 8 9 16 15 2 34
17 1 13 8 0 27 5 11 11 3 3 11 5 6 2 3 8 8 5 6 11 14 7 7 5 6 8 12 11 6 19 9 11 8 15 22 10 10 12 7 5 18 5 8 5
-5 24 5 12 12 8 4 8 7 7 9 3 3 5 5 5 6 2 11 6 8 9 12 5 8 6 6 7 7 10 10 10 6 6 8 19 16 12 8 8 16 11 6 -2 -13
8 24 10 10 1 10 11 8 17 13 14 4 4 7 8 6 3 5 10 5 8 7 4 8 6 7 7 7 9 9 11 11 16 15 3 6 15 18 22 14 8 7 7 20 24
23 16 12 3 13 17 14 12 11 9 11 10 2 8 4 7 5 7 9 5 6 8 9 12 4 7 8 6 7 7 6 10 8 14 10 6 15 4 6 10 28 24 9 8 9
13 25 8 -3 1 6 7 6 12 8 9 11 5 3 10 10 6 7 6 11 5 11 11 10 7 7 8 7 5 12 5 6 8 4 12 10 17 10 8 13 12 8 18 25 21
7 26 11 4 5 10 15 17 14 11 8 12 9 5 4 10 5 8 4 11 3 8 11 7 13 14 6 12 5 14 7 2 5 1 -2 13 -1 4 6 11 7 4 5 3 7
11 16 19 10 3 -1 -8 -3 8 12 8 8 6 8 9 6 7 9 8 10 9 11 10 12 13 10 7 12 11 7 6 8 5 6 5 1 7 3 6 10 10 15 9 9 9
9 16 13 10 6 2 1 3 9 11 8 2 7 5 8 12 12 5 9 8 14 10 10 13 12 6 11 9 8 10 2 0 0 12 -8 5 0 -1 4 1 1 5 8 7 9
8 11 10 7 7 1 2 14 19 18 13 12 10 10 11 13 12 10 16 10 14 13 16 12 4 21 14 9 10 1 1 1 8 -0 -3 7 11 -4 13 6 1 8 6 3 3
2 6 11 11 12 11 8 11 9 14 19 18 16 12 15 18 12 11 11 17 14 14 10 18 20 17 10 8 4 -1 6 -4 -1 13 11 5 8 4 6 10 13 13 8 5 3
5 6 7 6 9 9 9 9 12 12 16 14 14 18 16 13 14 16 12 11 15 16 18 13 6 11 -12 2 3 -2 3 4 1 8 6 2 9 12 9 8 2 8 1 6 8
Height
5838 5836 5834 5831 5827 5824 5821 5817 5813 5809 5805 5801 5797 5793 5788 5783 5778 5773 5768 5762 5754 5745 5735 5724 5713 5705 5698 5691 5686 5684 5684 5684 5685 5685 5692 5695 5705 5720 5736 5747 5755 5763 5771 5777 5788
5839 5836 5833 5830 5827 5824 5820 5816 5812 5809 5804 5800 5795 5791 5787 5780 5775 5769 5764 5757 5749 5740 5731 5719 5708 5699 5694 5687 5682 5679 5678 5676 5676 5676 5681 5687 5695 5713 5728 5737 5747 5754 5765 5770 5779
5839 5836 5833 5831 5828 5825 5820 5816 5812 5808 5804 5799 5794 5789 5784 5778 5773 5767 5760 5752 5744 5736 5726 5716 5706 5698 5691 5685 5681 5676 5673 5670 5671 5672 5677 5681 5689 5704 5718 5730 5739 5747 5759 5766 5771
5838 5836 5834 5831 5828 5824 5820 5816 5811 5807 5802 5797 5793 5788 5781 5774 5769 5763 5756 5749 5741 5733 5723 5713 5704 5697 5689 5682 5678 5675 5670 5668 5668 5670 5675 5679 5685 5697 5711 5725 5733 5741 5750 5756 5762
5839 5836 5834 5831 5828 5824 5820 5815 5811 5806 5801 5796 5791 5786 5780 5774 5768 5761 5753 5746 5738 5731 5722 5712 5704 5696 5688 5682 5676 5672 5669 5667 5665 5665 5671 5676 5682 5691 5706 5718 5724 5735 5743 5748 5756
5837 5835 5832 5829 5826 5823 5819 5815 5811 5806 5800 5796 5790 5785 5779 5774 5767 5760 5752 5744 5737 5729 5721 5712 5703 5696 5689 5682 5674 5669 5665 5663 5663 5663 5666 5672 5677 5686 5700 5710 5718 5729 5741 5738 5744
5836 5833 5831 5828 5824 5821 5818 5814 5810 5805 5800 5795 5790 5784 5779 5773 5765 5758 5751 5743 5736 5729 5720 5713 5704 5695 5688 5681 5674 5668 5665 5662 5661 5661 5662 5667 5675 5683 5693 5704 5713 5724 5734 5737 5743
5835 5832 5829 5826 5823 5820 5816 5813 5809 5804 5800 5795 5790 5785 5779 5772 5765 5756 5748 5743 5737 5727 5720 5713 5705 5695 5688 5682 5675 5670 5666 5663 5661 5659 5661 5664 5671 5676 5686 5699 5708 5717 5725 5730 5727
5832 5830 5827 5824 5821 5818 5815 5811 5808 5803 5799 5794 5790 5785 5779 5772 5764 5757 5751 5745 5737 5729 5722 5715 5708 5699 5690 5683 5676 5671 5667 5663 5659 5658 5659 5663 5667 5672 5682 5691 5701 5710 5718 5720 5721
5830 5827 5824 5821 5818 5816 5812 5809 5805 5802 5797 5793 5789 5785 5780 5772 5764 5757 5751 5745 5738 5730 5725 5716 5708 5699 5691 5684 5679 5672 5667 5663 5660 5658 5658 5659 5664 5667 5678 5689 5695 5703 5708 5713 5719
5826 5824 5821 5818 5815 5812 5810 5807 5805 5801 5796 5792 5787 5781 5775 5770 5764 5758 5751 5744 5737 5731 5724 5715 5709 5702 5693 5685 5679 5673 5667 5662 5659 5658 5657 5658 5662 5667 5676 5682 5690 5698 5705 5708 5707
5822 5819 5816 5814 5812 5809 5807 5804 5801 5798 5794 5789 5785 5780 5775 5770 5764 5757 5752 5746 5739 5733 5725 5718 5710 5703 5694 5687 5681 5674 5669 5664 5661 5659 5658 5659 5663 5668 5676 5681 5687 5694 5699 5701 5704
5818 5814 5811 5808 5806 5805 5802 5800 5797 5794 5791 5787 5782 5777 5773 5769 5763 5757 5751 5746 5739 5732 5725 5717 5711 5703 5697 5691 5684 5678 5673 5668 5664 5662 5660 5662 5664 5669 5676 5681 5686 5691 5696 5700 5706
5812 5808 5807 5804 5803 5799 5797 5795 5792 5789 5787 5784 5779 5775 5770 5764 5761 5755 5749 5745 5737 5732 5725 5718 5712 5707 5700 5693 5687 5681 5676 5671 5667 5665 5663 5666 5669 5673 5678 5682 5685 5689 5695 5699 5704
5807 5804 5801 5798 5795 5793 5792 5790 5787 5785 5782 5779 5775 5771 5766 5762 5757 5753 5748 5744 5739 5732 5727 5721 5715 5709 5702 5695 5689 5685 5678 5674 5671 5669 5667 5667 5671 5673 5678 5683 5686 5690 5696 5698 5701
5800 5799 5796 5793 5789 5787 5785 5783 5782 5781 5777 5774 5770 5767 5764 5759 5754 5750 5746 5741 5738 5735 5726 5721 5714 5709 5701 5696 5692 5687 5682 5679 5675 5673 5671 5670 5672 5674 5678 5681 5684 5690 5694 5697 5700
5794 5793 5790 5788 5785 5781 5779 5777 5777 5775 5773 5769 5766 5762 5759 5756 5752 5746 5742 5737 5733 5731 5727 5720 5713 5707 5705 5700 5694 5691 5688 5683 5680 5675 5674 5673 5674 5675 5676 5681 5684 5689 5694 5698 5699
5789 5787 5784 5782 5779 5776 5774 5772 5769 5768 5765 5764 5761 5758 5754 5751 5749 5743 5738 5733 5728 5725 5722 5717 5712 5706 5703 5700 5693 5689 5685 5682 5680 5678 5676 5676 5676 5676 5677 5679 5683 5686 5691 5693 5695
5782 5780 5777 5776 5774 5770 5770 5766 5763 5762 5760 5758 5756 5752 5749 5745 5742 5738 5733 5729 5724 5721 5719 5715 5712 5707 5701 5699 5697 5692 5689 5686 5684 5682 5679 5677 5679 5677 5678 5679 5680 5682 5686 5690 5692
5776 5773 5772 5772 5770 5767 5763 5762 5757 5755 5752 5751 5749 5746 5742 5739 5736 5732 5729 5725 5721 5717 5713 5712 5710 5706 5702 5699 5696 5693 5691 5689 5685 5684 5681 5679 5679 5679 5680 5679 5679 5680 5681 5684 5685
5770 5766 5767 5765 5765 5763 5759 5755 5752 5750 5746 5744 5743 5740 5736 5733 5731 5727 5724 5721 5717 5712 5709 5706 5707 5705 5699 5696 5695 5691 5689 5688 5685 5684 5682 5681 5680 5678 5678 5678 5679 5679 5678 5677 5679
5765 5762 5760 5759 5760 5757 5755 5751 5746 5743 5741 5739 5737 5733 5730 5727 5723 5720 5717 5714 5711 5706 5703 5701 5699 5699 5698 5694 5692 5691 5686 5686 5685 5683 5681 5680 5679 5679 5678 5676 5676 5677 5677 5677 5675
5761 5758 5756 5754 5753 5752 5751 5748 5743 5739 5735 5732 5730 5727 5724 5721 5718 5715 5711 5709 5706 5702 5697 5695 5694 5692 5693 5693 5689 5687 5686 5684 5684 5682 5678 5679 5678 5674 5675 5675 5673 5672 5671 5671 5672
5756 5754 5751 5750 5748 5745 5743 5741 5738 5734 5729 5724 5723 5720 5717 5714 5710 5707 5704 5701 5699 5697 5694 5688 5692 5689 5685 5685 5687 5685 5682 5680 5679 5678 5680 5677 5677 5669 5671 5670 5669 5667 5666 5665 5664
5751 5749 5747 5744 5741 5739 5736 5733 5730 5726 5723 5720 5717 5712 5708 5705 5702 5700 5698 5696 5694 5690 5689 5686 5685 5685 5681 5680 5680 5680 5678 5675 5674 5671 5668 5671 5672 5665 5667 5668 5665 5662 5659 5656 5655
5744 5742 5740 5738 5734 5732 5730 5727 5723 5719 5716 5712 5708 5704 5701 5698 5695 5693 5692 5690 5687 5687 5682 5681 5678 5680 5678 5674 5675 5675 5671 5669 5669 5664 5663 5660 5662 5658 5657 5656 5654 5652 5649 5647 5646
5736 5736 5734 5731 5728 5724 5722 5720 5716 5713 5711 5706 5701 5700 5696 5693 5690 5687 5685 5684 5680 5679 5678 5676 5673 5671 5676 5670 5670 5669 5664 5661 5659 5660 5658 5655 5653 5652 5650 5646 5642 5641 5639 5637 5634